Location: Andrest
(43.3200°N, 0.0641°E)
Time: 20:30:46
(UTC+00:00)

Radarsat Rocket - Pass Details

Date: 01 December 2020
Orbit: 933 x 1491 km, 100.6° (Epoch: 20 January)

Event Time Altitude Azimuth Distance (km) Brightness Sun altitude
Rises 17:18:20 0° 167° (SSE) 3,634 7.1 -9.6°
Reaches altitude 10° 17:20:40 10° 169° (SSE) 2,729 6.5 -10.0°
Maximum altitude 17:26:45 76° 254° (WSW) 1,085 4.4 -11.0°
Drops below altitude 10° 17:33:38 10° 341° (NNW) 3,065 6.6 -12.2°
Sets 17:36:24 0° 343° (NNW) 4,112 7.3 -12.7°
